Change the Weather History Date:

Friday, December 28, 2012

  Actual Average Record
Temperature  
Mean Temperature 22 °F -  
Max Temperature 28 °F 42 °F 66 °F (1999)
Min Temperature 14 °F 17 °F 12 °F (2014)
Degree Days  
Heating Degree Days 44    
Moisture  
Dew Point 12 °F    
Average Humidity 62    
Maximum Humidity 74    
Minimum Humidity 43    
Precipitation  
Precipitation 0.00 in - - ()
Sea Level Pressure  
Sea Level Pressure 30.08 in    
Wind  
Wind Speed 11 mph (NNW)    
Max Wind Speed 17 mph    
Max Gust Speed 25 mph    
Visibility 10 miles    
Events      
Averages and records for this station are not official NWS values.
T = Trace of Precipitation, MM = Missing Value Source: NWS Daily Summary

Daily Weather History Graph

Daily Weather History Graph

Search for Another Location

Airport or City:

Trip Planner

Search our weather history database for the weather conditions in past years. The results will help you decide how hot, cold, wet, or windy it might be!

Date:

Astronomy

Dec. 28, 2012 Rise Set
Actual Time 7:46 AM CST 5:19 PM CST
Civil Twilight 7:17 AM CST 5:49 PM CST
Nautical Twilight 6:44 AM CST 6:22 PM CST
Astronomical Twilight 6:12 AM CST 6:54 PM CST
Moon 5:56 PM CST (12/28) 7:43 AM CST (12/28)
Length of Visible Light 10h 31m
Length of Day
9h 32m
Full, 100% of the Moon is Illuminated
Dec 28
Full
Jan 4
Last Quarter
Jan 11
New
Jan 18
First Quarter
Jan 26
Full

Hourly Weather History & Observations

Time (CST) Temp. Windchill Dew Point Humidity Pressure Visibility Wind Dir Wind Speed Gust Speed Precip Events Conditions
12:52 AM 27.0 °F 18.7 °F 19.0 °F 72% 30.00 in 9.0 mi NNW 8.1 mph - N/A   Overcast
1:52 AM 26.1 °F 16.2 °F 18.0 °F 71% 30.00 in 9.0 mi NW 10.4 mph - N/A   Overcast
2:52 AM 26.1 °F 16.8 °F 18.0 °F 71% 30.01 in 9.0 mi NW 9.2 mph - N/A   Overcast
3:52 AM 26.1 °F 15.6 °F 18.0 °F 71% 30.01 in 9.0 mi NW 11.5 mph - N/A   Overcast
4:52 AM 26.1 °F 15.0 °F 18.0 °F 71% 30.02 in 9.0 mi NW 12.7 mph - N/A   Overcast
5:52 AM 25.0 °F 15.5 °F 17.1 °F 72% 30.03 in 10.0 mi NW 9.2 mph - N/A   Overcast
6:52 AM 24.1 °F 11.5 °F 15.1 °F 69% 30.03 in 10.0 mi NW 15.0 mph - N/A   Overcast
7:45 AM 19.4 °F 8.6 °F 10.4 °F 68% 30.01 in 10.0 mi NW 9.2 mph - N/A   Scattered Clouds
8:52 AM 17.1 °F 4.3 °F 9.0 °F 71% 30.06 in 9.0 mi NW 11.5 mph - N/A   Clear
9:52 AM 21.9 °F 10.4 °F 10.0 °F 60% 30.09 in 10.0 mi NNW 11.5 mph 19.6 mph N/A   Clear
10:52 AM 24.1 °F 12.0 °F 10.0 °F 55% 30.10 in 10.0 mi NNW 13.8 mph - N/A   Clear
11:52 AM 26.1 °F 15.0 °F 9.0 °F 49% 30.08 in 10.0 mi NNW 12.7 mph - N/A   Clear
12:52 PM 28.0 °F 17.0 °F 8.1 °F 43% 30.05 in 10.0 mi NW 13.8 mph 21.9 mph N/A   Clear
1:52 PM 28.9 °F 18.2 °F 9.0 °F 43% 30.04 in 10.0 mi NNW 13.8 mph 25.3 mph N/A   Clear
2:52 PM 28.9 °F 16.9 °F 9.0 °F 43% 30.04 in 10.0 mi NW 17.3 mph - N/A   Clear
3:52 PM 28.0 °F 15.7 °F 9.0 °F 45% 30.06 in 10.0 mi NNW 17.3 mph 23.0 mph N/A   Clear
4:52 PM 26.1 °F 16.2 °F 10.0 °F 51% 30.09 in 10.0 mi NNW 10.4 mph 21.9 mph N/A   Clear
5:52 PM 21.0 °F 9.9 °F 9.0 °F 60% 30.11 in 10.0 mi NNW 10.4 mph - N/A   Clear
7:52 PM 19.0 °F 7.5 °F 9.0 °F 65% 30.16 in 10.0 mi NNW 10.4 mph - N/A   Clear
8:52 PM 18.0 °F 6.1 °F 8.1 °F 65% 30.17 in 10.0 mi NNW 10.4 mph - N/A   Clear
9:52 PM 15.1 °F 3.3 °F 8.1 °F 74% 30.19 in 9.0 mi NNW 9.2 mph - N/A   Clear
10:52 PM 16.0 °F 5.3 °F 8.1 °F 71% 30.20 in 9.0 mi NNW 8.1 mph - N/A   Clear
11:52 PM 14.0 °F 3.9 °F 7.0 °F 74% 30.20 in 9.0 mi NNW 6.9 mph - N/A   Clear